Location: Suiattle Valley
(48.3620°N, 121.4180°W)
Time: 21:23:50
(UTC-07:00)

OTV 5 (USA 277) - Visible Passes

Search period start: 26 April 2018 00:00
Search period end: 06 May 2018 00:00
Orbit: 308 x 325 km, 54.5° (Epoch: 25 April)

Date Brightness Start Highest point End Pass type
(mag) Time Alt. Az. Time Alt. Az. Time Alt. Az.
26 Apr ? 22:11:24 10° NW 22:13:46 26° NNE 22:14:43 21° NE visible
27 Apr ? 20:51:20 10° NW 20:53:32 21° N 20:55:43 10° NE visible
27 Apr ? 22:25:46 10° NW 22:28:21 37° NNE 22:28:28 36° NNE visible
28 Apr ? 21:05:53 10° NW 21:08:09 23° N 21:10:25 10° ENE visible
28 Apr ? 22:40:06 10° WNW 22:42:13 47° NW 22:42:13 47° NW visible
29 Apr ? 21:20:16 10° NW 21:22:44 30° NNE 21:25:05 11° E visible
29 Apr ? 22:54:30 10° WNW 22:55:57 26° W 22:55:57 26° W visible
30 Apr ? 21:34:33 10° NW 21:37:13 48° NNE 21:38:50 20° E visible
30 Apr ? 23:09:10 10° W 23:09:41 13° W 23:09:41 13° W visible
01 May ? 21:48:52 10° WNW 21:51:35 81° SW 21:52:35 35° SE visible
02 May ? 22:03:19 10° WNW 22:05:50 33° SW 22:06:21 30° SSW visible
03 May ? 22:18:15 10° W 22:19:56 15° SW 22:20:09 15° SW visible
05 May ? 21:12:07 10° W 21:14:21 23° SW 21:16:34 10° SSE visible
